Погода в Багане

Россия / Новосибирская область     54°05′50″N   77°39′56″E
темп.,
°C
ветер,
м/с
пор.,
м/с
влажн.,
%
обл.,
%
осадки,
мм/ч
давл.,
гПа
погр.,
м
22 апреля, чт
чт2201:00−2с6128151 0.0 1031537
04:00−2ссв610835 0.0 1034499
07:00−3ссв510845 0.0 1037442
10:000ссв68615 0.0 1039801
13:00+4св674381 0.0 10411877
16:00+5св6735100 0.0 10422252
19:00+5св663767 0.0 10431935
22:00+1св37561 0.0 1045139
23 апреля, пт
пт2301:000св37640 0.0 1045160
04:00−1св34720 0.0 104696
07:00−1св34795 0.0 104699
10:00+3св34575 0.0 1047779
13:00+6всв44445 0.0 10451453
16:00+7св44388 0.0 10431746
19:00+7св443961 0.0 10431816
22:00+3ссв36625 0.0 1043113
24 апреля, сб
сб2401:00+2св34694 0.0 104277
04:00+1всв33785 0.0 104032
07:000всв22804 0.0 104037
10:00+4всв22574 0.0 1039498
13:00+7ссв22445 0.0 10371457
16:00+9с11375 0.0 10351601
19:00+9св11355 0.0 10341575
22:00+6в22475 0.0 103419
25 апреля, вс
вс2501:00+5юв335699 0.0 103339
04:00+4ююв3358100 0.0 103342
07:00+3ююв3560100 0.0 103286
10:00+7ююв4648100 0.0 1032446
13:00+10ююв6735100 0.0 10301385
16:00+11ююв6730100 0.0 10281653
19:00+11ююв5733100 0.0 10271664
22:00+8юв51046100 0.0 1027249
26 апреля, пн
пн2601:00+6юв5115440 0.0 1025227
04:00+5юв5135499 0.0 1025294
07:00+5юв51259100 0.0 1024320
10:00+8юв6105077 0.0 1023414
13:00+13юв67335 0.0 1022989
16:00+15ююв562875 0.0 10211658
19:00+16ю4629100 0.0 10201915
22:00+11з335170 0.0 102126